| time (UTC) | temp F | wind direction | speed knots | gust knots | rain 1hr in | rain 24hr in | rain mn in | humidity % | barometer mb |
| 20260505011555 | 66 | 351 | 11.3 | 18.2 | 0.00 | 0.00 | 0.00 | 33 | 1004.0 |
| 20260505010056 | 67 | 354 | 14.8 | 19.1 | 0.00 | 0.00 | 0.00 | 32 | 1003.7 |
| 20260505004557 | 68 | 336 | 13.9 | 18.2 | 0.00 | 0.00 | 0.00 | 31 | 1003.3 |
| 20260505003054 | 68 | 338 | 13.0 | 20.9 | 0.00 | 0.00 | 0.00 | 30 | 1003.0 |
| 20260505001553 | 69 | 349 | 15.6 | 22.6 | 0.00 | 0.00 | 0.00 | 29 | 1002.7 |
| 20260505000056 | 70 | 347 | 17.4 | 23.5 | 0.00 | 0.00 | 0.00 | 29 | 1002.1 |
| 20260504234552 | 70 | 355 | 13.0 | 21.7 | 0.00 | 0.00 | 0.00 | 29 | 1002.0 |
| 20260504233052 | 72 | 345 | 17.4 | 24.3 | 0.00 | 0.00 | 0.00 | 29 | 1001.6 |
| 20260504231553 | 73 | 334 | 14.8 | 22.6 | 0.00 | 0.00 | 0.00 | 28 | 1001.1 |
| 20260504230052 | 73 | 354 | 16.5 | 22.6 | 0.00 | 0.00 | 0.00 | 28 | 1000.9 |
| 20260504224549 | 74 | 4 | 16.5 | 22.6 | 0.00 | 0.00 | 0.00 | 27 | 1000.9 |
| 20260504223050 | 75 | 356 | 15.6 | 21.7 | 0.00 | 0.00 | 0.00 | 26 | 1000.8 |
| 20260504221549 | 76 | 11 | 16.5 | 22.6 | 0.00 | 0.00 | 0.00 | 26 | 1000.8 |
| 20260504220048 | 76 | 350 | 16.5 | 22.6 | 0.00 | 0.00 | 0.00 | 26 | 1000.7 |
| 20260504214555 | 77 | 356 | 14.8 | 20.0 | 0.00 | 0.00 | 0.00 | 26 | 1000.6 |
| 20260504213048 | 78 | 342 | 13.0 | 20.0 | 0.00 | 0.00 | 0.00 | 25 | 1000.6 |
| 20260504211547 | 79 | 11 | 13.0 | 19.1 | 0.00 | 0.00 | 0.00 | 24 | 1000.7 |
| 20260504210058 | 79 | 7 | 13.9 | 21.7 | 0.00 | 0.00 | 0.00 | 24 | 1000.7 |
| 20260504204603 | 80 | 336 | 17.4 | 23.5 | 0.00 | 0.00 | 0.00 | 26 | 1000.7 |
| 20260504203059 | 79 | 329 | 15.6 | 20.0 | 0.00 | 0.00 | 0.00 | 26 | 1000.6 |
| 20260504201543 | 80 | 338 | 12.2 | 15.6 | 0.00 | 0.00 | 0.00 | 23 | 1001.0 |
| 20260504200043 | 83 | 290 | 3.5 | 11.3 | 0.00 | 0.00 | 0.00 | 19 | 1000.9 |
| 20260504194540 | 83 | 16 | 4.3 | 7.0 | 0.00 | 0.00 | 0.00 | 16 | 1001.1 |
| 20260504193038 | 81 | 91 | 3.5 | 7.8 | 0.00 | 0.00 | 0.00 | 20 | 1001.1 |
| 20260504191537 | 81 | 40 | 6.1 | 10.4 | 0.00 | 0.00 | 0.00 | 19 | 1001.3 |
| 20260504190035 | 81 | 39 | 5.2 | 11.3 | 0.00 | 0.00 | 0.00 | 19 | 1001.1 |
| 20260504184533 | 81 | 337 | 2.6 | 7.0 | 0.00 | 0.00 | 0.00 | 19 | 1001.7 |
| 20260504183031 | 80 | 86 | 1.7 | 8.7 | 0.00 | 0.00 | 0.00 | 18 | 1001.9 |
| 20260504181529 | 80 | 349 | 6.1 | 10.4 | 0.00 | 0.00 | 0.00 | 19 | 1001.9 |
| 20260504180028 | 79 | 310 | 2.6 | 7.8 | 0.00 | 0.00 | 0.00 | 22 | 1002.1 |
| 20260504174527 | 78 | 347 | 7.8 | 13.0 | 0.00 | 0.00 | 0.00 | 20 | 1002.2 |
| 20260504173024 | 79 | 360 | 3.5 | 10.4 | 0.00 | 0.00 | 0.00 | 22 | 1002.3 |
| 20260504171522 | 78 | 23 | 3.5 | 6.1 | 0.00 | 0.00 | 0.00 | 22 | 1002.3 |
| 20260504081509 | 44 | 193 | 1.7 | 3.5 | 0.00 | 0.00 | 0.00 | 64 | 1004.1 |
| 20260504044539 | 51 | 295 | 0.9 | 3.5 | 0.00 | 0.00 | 0.00 | 53 | 1006.4 |
| 20260504043039 | 58 | 58 | 2.6 | 4.3 | 0.00 | 0.00 | 0.00 | 42 | 1006.2 |
| 20260504041543 | 54 | 335 | 0.0 | 2.6 | 0.00 | 0.00 | 0.00 | 48 | 1006.4 |
| 20260504040041 | 57 | 318 | 0.9 | 2.6 | 0.00 | 0.00 | 0.00 | 44 | 1006.3 |
| 20260504034544 | 59 | 60 | 1.7 | 2.6 | 0.00 | 0.00 | 0.00 | 42 | 1006.2 |
| 20260504033036 | 60 | 76 | 2.6 | 6.1 | 0.00 | 0.00 | 0.00 | 42 | 1006.1 |
| 20260504031540 | 60 | 74 | 1.7 | 3.5 | 0.00 | 0.00 | 0.00 | 40 | 1006.2 |
| 20260504030036 | 60 | 32 | 0.0 | 1.7 | 0.00 | 0.00 | 0.00 | 40 | 1006.1 |
| 20260504024540 | 62 | 22 | 0.9 | 2.6 | 0.00 | 0.00 | 0.00 | 37 | 1006.0 |
| 20260504023035 | 63 | 22 | 0.9 | 1.7 | 0.00 | 0.00 | 0.00 | 37 | 1005.9 |
| 20260504021536 | 63 | 18 | 0.9 | 1.7 | 0.00 | 0.00 | 0.00 | 37 | 1005.7 |
| 20260504020038 | 64 | 34 | 1.7 | 2.6 | 0.00 | 0.00 | 0.00 | 36 | 1005.6 |
| 20260504014537 | 65 | 23 | 1.7 | 2.6 | 0.00 | 0.00 | 0.00 | 34 | 1005.7 |
| 20260504013042 | 67 | 16 | 2.6 | 4.3 | 0.00 | 0.00 | 0.00 | 32 | 1005.7 |